GSM weather

Qeshm International Airport
Qeshm, Hormozgan Province, Iran

Public forecast

Using degrees Celsius for public forecast. Weather courtesy of forecast.io.

METAR (pilot weather report)

Closest report is Dayrestan Airport, 0.0 nm (0.0 km) SE. Retrieved 2018/09/26 04:00 UTC (54 minutes ago):

OIKQ 260400Z 20006KT 2500 BR FEW025 FEW035CB 32/30 Q1006

TAF (pilot weather forecast)

Forecast is more than 12 hours old.

Closest forecast is Dayrestan Airport, 0.0 nm (0.0 km) SE. Retrieved 2018/01/30 06:39 UTC (8 months ago):

TAF OIKQ 300530Z 3006/3112 06003MPS 9999 FEW030 BECMG 3010/3012 24008MPS BECMG 3105/3107 24003M